DateTimeUTC,F1_A11,F1_S11,BsB_S11,BsG_S11,BsR_S11,BbsB_S11,BbsG_S11,BbsR_S11,BaB_A11,BaG_A11,BaR_A11,Tu_S11,T_S11,Uu_S11,U_S11,P_S11,T1_A11
2021-01-28T17:00:00Z,00000200,21000000,,,,,,,0000.25,0000.06,-000.17,14.7,22.5,,00.0,0632.0,30.9
2021-01-28T17:01:00Z,00000200,21000000,,,,,,,0000.41,0000.02,0000.17,14.7,22.6,,00.0,0632.0,30.9
2021-01-28T17:02:00Z,00000200,21000000,,,,,,,-000.09,0000.45,0000.02,14.7,22.6,,00.0,0632.0,30.9
2021-01-28T17:03:00Z,00000200,61000000,,,,,,,-000.12,-000.02,-000.10,14.7,22.6,,00.0,0632.0,30.9
2021-01-28T17:04:00Z,00000200,41000000,0000.40,0000.25,-000.07,0000.81,0000.03,0000.08,0000.05,-000.19,0000.39,15.1,22.4,,00.0,0632.9,30.9
2021-01-28T17:05:00Z,00000200,01000000,-000.05,0000.36,0000.15,0000.10,0000.01,0000.32,-000.04,0000.05,-000.10,15.2,22.4,,00.0,0633.0,30.9
2021-01-28T17:06:00Z,00000200,01000000,0000.64,0000.35,-000.02,-000.09,-000.03,-000.04,-000.00,-000.13,-000.27,15.2,22.4,,00.0,0633.1,30.9
2021-01-28T17:07:00Z,00000200,01000000,0000.57,0000.11,-000.11,0000.87,0000.00,0000.14,0000.20,0000.17,0000.19,15.2,22.4,,00.0,0633.0,30.9
2021-01-28T17:08:00Z,00000200,01000000,0000.13,-000.04,0000.02,0000.95,0000.52,-000.02,0000.18,0000.21,0000.29,15.2,22.3,,00.0,0633.0,30.9
2021-01-28T17:09:00Z,00000200,01000000,0000.91,-000.00,0000.13,0000.15,-000.13,-000.11,0000.02,0000.02,-000.14,15.2,22.3,,00.0,0633.0,30.9
2021-01-28T17:10:00Z,00000200,01000000,0000.08,-000.05,0000.09,0000.14,0000.12,0000.16,-000.09,0000.18,0000.19,15.3,22.4,,00.0,0633.1,30.9
2021-01-28T17:11:00Z,00000200,01000000,-000.03,-000.03,-000.11,0000.28,0000.02,-000.02,0000.38,0000.11,0000.08,15.3,22.4,,00.0,0633.1,30.9
2021-01-28T17:12:00Z,00000200,01000000,0000.45,0000.06,0000.07,0000.50,0000.22,0000.09,-000.14,0000.01,-000.01,15.3,22.4,,00.0,0633.1,30.9
2021-01-28T17:13:00Z,00000200,01000000,0000.65,0000.05,0000.11,-000.03,0000.42,0000.29,0000.54,0000.30,-000.06,15.4,22.4,,00.0,0633.0,30.9
2021-01-28T17:14:00Z,00000200,01000000,0000.60,0000.25,0000.14,0000.24,-000.13,-000.04,-000.06,-000.01,0000.33,15.4,22.4,,00.0,0633.0,30.9
2021-01-28T17:15:00Z,00000200,01000000,0000.48,0000.27,0000.32,0000.51,0000.00,0000.25,0000.23,0000.11,0000.20,15.5,22.5,,00.0,0633.0,30.9
2021-01-28T17:16:00Z,00000200,01000000,0000.63,0000.14,-000.16,0000.40,0000.00,0000.03,0000.30,0000.43,0000.23,15.5,22.5,,00.0,0633.0,30.9
2021-01-28T17:17:00Z,00000200,01000000,0000.27,0000.33,-000.06,0000.26,0000.06,0000.12,-000.21,-000.20,-000.13,15.5,22.5,,00.0,0633.0,30.9
2021-01-28T17:18:00Z,00000200,01000000,0000.59,-000.00,-000.03,0000.42,0000.19,-000.16,-000.05,0000.09,-000.21,15.5,22.5,,00.0,0633.0,30.9
2021-01-28T17:19:00Z,00000200,01000000,0000.82,0000.03,0000.33,0000.37,0000.14,0000.19,0000.24,-000.09,-000.25,15.4,22.4,,00.0,0633.0,30.9
2021-01-28T17:20:00Z,00000200,01000000,-000.51,0000.06,0000.01,-000.21,0000.17,0000.12,-000.22,0000.45,-000.12,15.4,22.4,,00.0,0633.0,30.9
2021-01-28T17:21:00Z,00000200,01000000,0000.25,0000.22,0000.23,0000.24,0000.14,0000.01,0000.11,-000.27,0000.39,15.3,22.4,,00.0,0633.0,30.9
2021-01-28T17:22:00Z,00000200,01000000,-000.27,0000.40,0000.25,0000.63,-000.11,0000.43,0000.55,0000.05,0000.40,15.3,22.4,,00.0,0633.0,30.9
2021-01-28T17:23:00Z,00000200,01000000,0000.46,0000.19,0000.08,0000.95,0000.14,0000.25,0000.39,0000.01,-000.19,15.4,22.4,,00.0,0633.0,30.9
2021-01-28T17:24:00Z,00000200,01000000,0000.11,0000.03,0000.13,-000.55,0000.08,0000.00,-000.19,0000.50,0000.65,15.4,22.4,,00.0,0633.0,30.9
2021-01-28T17:25:00Z,00000200,01000000,0000.54,0000.20,0000.09,0000.38,0000.15,-000.29,0000.65,0000.33,-000.06,15.5,22.4,,00.0,0632.9,30.9
2021-01-28T17:26:00Z,00000200,01000000,0000.60,0000.49,0000.27,0001.01,0000.07,-000.06,0000.28,0000.18,0000.26,15.5,22.5,,00.0,0632.9,30.9
2021-01-28T17:27:00Z,00000200,01000000,0000.40,0000.21,-000.03,0000.22,0000.14,-000.13,-000.13,0000.59,0000.12,15.6,22.5,,00.0,0632.9,30.9
2021-01-28T17:28:00Z,00000200,01000000,-000.01,0000.26,-000.13,0000.43,0000.04,-000.05,0000.28,-000.14,0000.14,15.7,22.5,,00.0,0632.9,30.9
2021-01-28T17:29:00Z,00000200,01000000,0000.35,0000.07,-000.21,0000.13,0000.03,-000.10,0000.24,0000.26,0000.03,15.7,22.6,,00.0,0632.9,30.9
2021-01-28T17:30:00Z,00000200,01000000,0000.29,0000.07,0000.10,0000.21,0000.08,0000.08,-000.02,0000.12,0000.11,15.8,22.6,,00.0,0632.9,30.9
2021-01-28T17:31:00Z,00000200,01000000,0000.26,0000.37,0000.32,0000.00,-000.01,-000.03,0000.11,-000.38,0000.10,15.8,22.6,,00.0,0632.9,30.9
2021-01-28T17:32:00Z,00000200,01000000,0000.74,0000.23,-000.09,0000.57,0000.29,0000.06,0000.07,-000.02,-000.54,15.8,22.6,,00.0,0633.0,30.9
2021-01-28T17:33:00Z,00000200,01000000,0000.33,0000.10,0000.35,0001.01,0000.01,0000.36,-000.60,0000.15,0000.02,15.7,22.6,,00.0,0633.0,30.9
2021-01-28T17:34:00Z,00000200,01000000,0000.19,0000.10,0000.24,0000.17,0000.21,0000.20,0000.13,-000.21,-000.12,15.7,22.6,,00.0,0633.0,30.9
2021-01-28T17:35:00Z,00000200,01000000,-000.30,0000.26,0000.05,0000.65,0000.08,-000.00,-000.24,0000.23,0000.33,15.6,22.6,,00.0,0633.0,30.9
2021-01-28T17:36:00Z,00000200,01000000,0000.24,0000.23,0000.17,0000.46,0000.17,0000.13,0000.67,-000.51,0000.03,15.6,22.5,,00.0,0633.0,30.9
2021-01-28T17:37:00Z,00000200,01000000,0000.22,0000.18,0000.00,0000.28,0000.31,0000.14,-000.01,0000.59,0000.16,15.6,22.5,,00.0,0633.0,30.9
2021-01-28T17:38:00Z,00000200,01000000,-000.34,0000.18,0000.13,0000.66,-000.01,-000.04,0000.22,-000.04,0000.24,15.6,22.5,,00.0,0633.0,30.9
2021-01-28T17:39:00Z,00000200,01000000,0000.11,0000.12,0000.04,0000.73,0000.08,-000.01,0000.27,0000.23,0000.15,15.6,22.6,,00.0,0633.0,30.9
2021-01-28T17:40:00Z,00000200,01000000,0000.49,0000.33,-000.02,0000.24,0000.23,-000.13,0000.25,0000.44,0000.02,15.7,22.6,,00.0,0633.0,30.9
2021-01-28T17:41:00Z,00000200,01000000,0000.21,0000.07,0000.05,0000.44,0000.04,-000.02,-000.35,-000.12,-000.05,15.7,22.6,,00.0,0632.9,30.9
2021-01-28T17:42:00Z,00000200,01000000,0000.04,0000.29,0000.08,0000.25,0000.07,-000.09,0000.39,0000.30,0000.26,15.8,22.7,,00.0,0632.9,30.9
2021-01-28T17:43:00Z,00000200,01000000,0000.88,0000.33,-000.12,0000.34,0000.36,0000.13,-000.07,-000.02,-000.24,15.9,22.7,,00.0,0633.0,30.9
2021-01-28T17:44:00Z,00000200,01000000,0000.66,0000.20,0000.06,0000.02,0000.18,0000.06,0000.13,-000.10,0000.33,15.9,22.7,,00.0,0633.0,30.9
2021-01-28T17:45:00Z,00000200,01000000,0000.55,0000.23,0000.21,0000.23,0000.10,0000.20,-000.16,0000.46,-000.08,16.0,22.8,,00.0,0633.0,30.9
2021-01-28T17:46:00Z,00000200,01000000,0000.55,0000.23,0000.10,-000.34,0000.27,0000.04,0000.33,-000.20,0000.45,16.0,22.8,,00.0,0633.0,30.9
2021-01-28T17:47:00Z,00000200,01000000,0000.03,0000.14,0000.03,0000.23,0000.06,0000.18,0000.11,0000.19,-000.40,16.0,22.8,,00.0,0633.0,30.9
2021-01-28T17:48:00Z,00000200,01000000,0000.47,0000.31,0000.15,0000.15,0000.19,-000.01,-000.17,-000.34,-000.09,16.0,22.8,,00.0,0633.0,30.9
2021-01-28T17:49:00Z,00000200,01000000,-000.17,0000.07,0000.10,0000.48,0000.10,-000.07,-000.01,0000.11,0000.13,15.9,22.8,,00.0,0633.1,30.9
2021-01-28T17:50:00Z,00000200,01000000,0000.58,0000.13,-000.02,0000.37,-000.13,0000.19,-000.48,0000.09,-000.28,15.9,22.7,,00.0,0633.1,30.9
2021-01-28T17:51:00Z,00000200,01000000,0000.43,0000.08,0000.06,0000.39,0000.17,-000.15,0000.91,-000.38,0000.54,15.8,22.7,,00.0,0633.1,30.9
2021-01-28T17:52:00Z,00000200,01000000,0000.13,0000.06,0000.19,0000.47,-000.15,0000.04,0000.05,0000.30,0000.20,15.8,22.7,,00.0,0633.2,30.9
2021-01-28T17:53:00Z,00000200,01000000,0000.52,0000.27,0000.22,0000.04,0000.29,-000.06,-000.26,0000.11,-000.27,15.8,22.7,,00.0,0633.2,30.9
2021-01-28T17:54:00Z,00000200,01000000,0000.79,0000.12,0000.26,0000.10,0000.23,0000.25,0000.35,0000.52,0000.15,15.8,22.7,,00.0,0633.1,30.9
2021-01-28T17:55:00Z,00000200,01000000,0000.51,0000.27,0000.10,0000.39,-000.09,-000.06,0000.03,0000.18,0000.27,15.9,22.8,,00.0,0633.1,30.9
2021-01-28T17:56:00Z,00000200,01000000,0000.23,-000.15,-000.02,0000.72,0000.06,0000.15,0000.28,-000.26,0000.04,16.0,22.8,,00.0,0633.1,30.9
2021-01-28T17:57:00Z,00000200,41000000,,,,,,,0000.32,0000.44,-000.00,16.0,22.9,,00.0,0633.1,30.9
2021-01-28T17:58:00Z,00000200,61000000,,,,,,,0000.11,0000.16,0000.44,15.6,23.0,,00.0,0632.2,30.9
2021-01-28T17:59:00Z,00000200,21000000,,,,,,,0000.26,0000.21,-000.38,15.6,23.1,,00.0,0632.2,30.9
